Hourly Data Report for October 25, 2013

All times are specified in Local Standard Time (LST). Add 1 hour to adjust for Daylight Saving Time where and when it is observed.

FORT LIARD
NORTHWEST TERRITORIES

60°14'00.000" N
123°28'00.000" W
213.40 m
2201579
71497
WJL

Download Data

Hourly Data (October 2013)
Hourly Data Report for October 25, 2013
Temp Definition
°C
Dew Point Temp Definition
°C
Rel Hum Definition
%
Wind Dir Definition
10's deg

Wind Spd Definition
km/h
Visibility Definition
km
Stn Press Definition
kPa
Hmdx Definition


Wind Chill Definition


Weather Definition


TIME
00:00 -2.5 -3.7 91 20 6   99.75   -5 LegendNANA
01:00 -2.1 -3.1 93 21 7   99.78   -5 LegendNANA
02:00 -2.1 -3.3 91 20 7   99.78   -5 LegendNANA
03:00 -1.9 -2.9 93 20 6   99.72   -4 LegendNANA
04:00 -1.6 -2.7 92 19 6   99.66   -4 LegendNANA
05:00 -1.5 -2.7 92 20 4   99.60   -3 LegendNANA
06:00 -1.5 -2.5 93 21 6   99.55   -4 LegendNANA
07:00 -1.3 -2.2 94 20 4   99.52   -3 LegendNANA
08:00 -1.0 -2.2 92 21 9   99.46   -4 LegendNANA
09:00 -1.0 -2.1 92 20 4   99.41   -2 LegendNANA
10:00 -0.6 -1.9 91 22 6   99.38   -3 LegendNANA
11:00 -0.1 -1.7 89 23 9   99.33   -3 LegendNANA
12:00 0.3 -1.7 86 22 9   99.29     LegendNANA
13:00 0.9 -1.6 83 23 9   99.24     LegendNANA
14:00 1.4 -1.5 81 23 7   99.15     LegendNANA
15:00 2.2 -1.4 77 22 2   99.12     LegendNANA
16:00 2.3 -1.5 76 23 4   99.11     LegendNANA
17:00 2.2 -1.4 77 23 7   99.05     LegendNANA
18:00 2.3 -1.3 77 23 9   99.03     LegendNANA
19:00 2.6 -1.3 75 23 6   99.03     LegendNANA
20:00 2.5 -1.7 74 9 9   99.08     LegendNANA
21:00 2.4 -1.8 74 8 15   99.11     LegendNANA
22:00 2.1 -1.6 76 8 13   99.14     LegendNANA
23:00 2.1 -1.4 78 8 15   99.16     LegendNANA

Notes on Data Quality.

Legend

  • E = Estimated
  • M = Missing
  • NA = Not Available
  • ‡ = Partner data that is not subject to review by the National Climate Archives
Date modified: